contact:dominique.lefevre@mio.osupytheas.fr, maurice.libes@osupytheas.fr, didier.mallarino@osupytheas.fr
Project:EMSO http://www.emso-fr.org/EMSO-France
Depth: 2436.0 m
Title:EMSO Ligure Ouest : Data MII capteur MICROCAT
DateTime_Computer,Latitude,Longitude,Temperature,Conductivity,Pressure,DateTime_Instrument
DateTime_Computer,Latitude,Longitude,degC,S m-1,dbar,DateTime_Instrument
2021-07-22T00:00:40Z,42.805,6.029,13.2998,4.60019,2470.45,2021-7-22T02:01:57Z
2021-07-22T00:03:43Z,42.805,6.029,13.2998,4.60008,2470.39,2021-7-22T02:05:00Z
2021-07-22T00:06:46Z,42.805,6.029,13.2995,4.60003,2470.413,2021-7-22T02:08:03Z
2021-07-22T00:09:49Z,42.805,6.029,13.3000,4.60007,2470.45,2021-7-22T02:11:06Z
2021-07-22T00:12:53Z,42.805,6.029,13.2993,4.60006,2470.427,2021-7-22T02:14:09Z
2021-07-22T00:15:56Z,42.805,6.029,13.2995,4.60005,2470.437,2021-7-22T02:17:12Z
2021-07-22T00:18:59Z,42.805,6.029,13.2998,4.60006,2470.413,2021-7-22T02:20:15Z
2021-07-22T00:22:02Z,42.805,6.029,13.3000,4.60006,2470.413,2021-7-22T02:23:19Z
2021-07-22T00:25:05Z,42.805,6.029,13.2996,4.60007,2470.427,2021-7-22T02:26:22Z
2021-07-22T00:28:08Z,42.805,6.029,13.2994,4.60006,2470.39,2021-7-22T02:29:25Z
2021-07-22T00:31:11Z,42.805,6.029,13.3000,4.60015,2470.413,2021-7-22T02:32:28Z
2021-07-22T00:34:14Z,42.805,6.029,13.2999,4.60006,2470.39,2021-7-22T02:35:31Z
2021-07-22T00:37:18Z,42.805,6.029,13.2993,4.60009,2470.437,2021-7-22T02:38:34Z
2021-07-22T00:40:21Z,42.805,6.029,13.2993,4.60003,2470.39,2021-7-22T02:41:37Z
2021-07-22T00:43:24Z,42.805,6.029,13.2993,4.60005,2470.437,2021-7-22T02:44:40Z
2021-07-22T00:46:27Z,42.805,6.029,13.2991,4.60005,2470.437,2021-7-22T02:47:44Z
2021-07-22T00:49:30Z,42.805,6.029,13.2993,4.60000,2470.437,2021-7-22T02:50:47Z
2021-07-22T00:52:33Z,42.805,6.029,13.2994,4.60003,2470.39,2021-7-22T02:53:50Z
2021-07-22T00:55:36Z,42.805,6.029,13.2996,4.60004,2470.413,2021-7-22T02:56:53Z
2021-07-22T00:58:39Z,42.805,6.029,13.2995,4.60008,2470.45,2021-7-22T02:59:56Z
2021-07-22T01:01:43Z,42.805,6.029,13.2992,4.60011,2470.413,2021-7-22T03:02:59Z
2021-07-22T01:04:46Z,42.805,6.029,13.2990,4.60019,2470.437,2021-7-22T03:06:02Z
2021-07-22T01:07:49Z,42.805,6.029,13.2992,4.60014,2470.413,2021-7-22T03:09:05Z
2021-07-22T01:10:52Z,42.805,6.029,13.2993,4.60001,2470.427,2021-7-22T03:12:09Z
2021-07-22T01:13:55Z,42.805,6.029,13.3001,4.60008,2470.437,2021-7-22T03:15:12Z
2021-07-22T01:16:58Z,42.805,6.029,13.2995,4.60002,2470.413,2021-7-22T03:18:15Z
2021-07-22T01:20:01Z,42.805,6.029,13.2995,4.60004,2470.45,2021-7-22T03:21:18Z
2021-07-22T01:23:04Z,42.805,6.029,13.2996,4.60000,2470.437,2021-7-22T03:24:21Z
2021-07-22T01:26:08Z,42.805,6.029,13.2996,4.60002,2470.427,2021-7-22T03:27:24Z
2021-07-22T01:29:11Z,42.805,6.029,13.2993,4.60001,2470.413,2021-7-22T03:30:27Z
2021-07-22T01:32:14Z,42.805,6.029,13.2990,4.60011,2470.45,2021-7-22T03:33:30Z
2021-07-22T01:35:17Z,42.805,6.029,13.2991,4.60001,2470.413,2021-7-22T03:36:33Z
2021-07-22T01:38:20Z,42.805,6.029,13.2993,4.60003,2470.427,2021-7-22T03:39:37Z
2021-07-22T01:41:23Z,42.805,6.029,13.2994,4.60009,2470.399,2021-7-22T03:42:40Z
2021-07-22T01:44:26Z,42.805,6.029,13.2992,4.60010,2470.474,2021-7-22T03:45:43Z
2021-07-22T01:47:29Z,42.805,6.029,13.2998,4.60011,2470.45,2021-7-22T03:48:46Z
2021-07-22T01:50:33Z,42.805,6.029,13.2992,4.60003,2470.437,2021-7-22T03:51:49Z
2021-07-22T01:53:36Z,42.805,6.029,13.2998,4.60009,2470.474,2021-7-22T03:54:52Z
2021-07-22T01:56:39Z,42.805,6.029,13.2996,4.60003,2470.45,2021-7-22T03:57:55Z
2021-07-22T01:59:42Z,42.805,6.029,13.3002,4.60003,2470.427,2021-7-22T04:00:59Z
2021-07-22T02:02:45Z,42.805,6.029,13.2997,4.60003,2470.474,2021-7-22T04:04:02Z
2021-07-22T02:05:48Z,42.805,6.029,13.2992,4.60002,2470.45,2021-7-22T04:07:05Z
2021-07-22T02:08:51Z,42.805,6.029,13.2998,4.60008,2470.437,2021-7-22T04:10:08Z
2021-07-22T02:11:54Z,42.805,6.029,13.2995,4.60006,2470.46,2021-7-22T04:13:11Z
2021-07-22T02:14:58Z,42.805,6.029,13.2996,4.60003,2470.474,2021-7-22T04:16:14Z
2021-07-22T02:18:01Z,42.805,6.029,13.2995,4.60005,2470.497,2021-7-22T04:19:17Z
2021-07-22T02:21:04Z,42.805,6.029,13.2993,4.60003,2470.483,2021-7-22T04:22:20Z
2021-07-22T02:24:07Z,42.805,6.029,13.2998,4.60003,2470.45,2021-7-22T04:25:23Z
2021-07-22T02:27:10Z,42.805,6.029,13.2995,4.60003,2470.46,2021-7-22T04:28:27Z
2021-07-22T02:30:13Z,42.805,6.029,13.2997,4.60003,2470.45,2021-7-22T04:31:30Z
2021-07-22T02:33:16Z,42.805,6.029,13.2993,4.60001,2470.46,2021-7-22T04:34:33Z
2021-07-22T02:36:19Z,42.805,6.029,13.2993,4.60003,2470.46,2021-7-22T04:37:36Z
2021-07-22T02:39:23Z,42.805,6.029,13.2993,4.60003,2470.483,2021-7-22T04:40:39Z
2021-07-22T02:42:26Z,42.805,6.029,13.2993,4.60006,2470.474,2021-7-22T04:43:42Z
2021-07-22T02:45:29Z,42.805,6.029,13.2998,4.60007,2470.46,2021-7-22T04:46:45Z
2021-07-22T02:48:32Z,42.805,6.029,13.2994,4.60009,2470.483,2021-7-22T04:49:48Z
2021-07-22T02:51:35Z,42.805,6.029,13.2990,4.60001,2470.474,2021-7-22T04:52:52Z
2021-07-22T02:54:38Z,42.805,6.029,13.2992,4.60004,2470.474,2021-7-22T04:55:55Z
2021-07-22T02:57:41Z,42.805,6.029,13.2991,4.60005,2470.46,2021-7-22T04:58:58Z
2021-07-22T03:00:44Z,42.805,6.029,13.2991,4.59999,2470.46,2021-7-22T05:02:01Z
2021-07-22T03:03:48Z,42.805,6.029,13.2990,4.60001,2470.46,2021-7-22T05:05:04Z
2021-07-22T03:06:51Z,42.805,6.029,13.2995,4.59999,2470.474,2021-7-22T05:08:07Z
2021-07-22T03:09:54Z,42.805,6.029,13.2991,4.60000,2470.483,2021-7-22T05:11:10Z
2021-07-22T03:12:57Z,42.805,6.029,13.2991,4.60003,2470.483,2021-7-22T05:14:13Z
2021-07-22T03:16:00Z,42.805,6.029,13.2992,4.60002,2470.46,2021-7-22T05:17:17Z
2021-07-22T03:19:03Z,42.805,6.029,13.2994,4.60003,2470.507,2021-7-22T05:20:20Z
2021-07-22T03:22:06Z,42.805,6.029,13.2994,4.60005,2470.507,2021-7-22T05:23:23Z
2021-07-22T03:25:09Z,42.805,6.029,13.2993,4.60005,2470.52,2021-7-22T05:26:26Z
2021-07-22T03:28:13Z,42.805,6.029,13.2996,4.60006,2470.483,2021-7-22T05:29:29Z
2021-07-22T03:31:16Z,42.805,6.029,13.2993,4.60003,2470.497,2021-7-22T05:32:32Z
2021-07-22T03:34:19Z,42.805,6.029,13.2996,4.60002,2470.497,2021-7-22T05:35:35Z
2021-07-22T03:37:22Z,42.805,6.029,13.2994,4.60002,2470.52,2021-7-22T05:38:38Z
2021-07-22T03:40:25Z,42.805,6.029,13.2997,4.60003,2470.52,2021-7-22T05:41:42Z
2021-07-22T03:43:28Z,42.805,6.029,13.2996,4.60002,2470.483,2021-7-22T05:44:45Z
2021-07-22T03:46:31Z,42.805,6.029,13.2993,4.60003,2470.52,2021-7-22T05:47:48Z
2021-07-22T03:49:34Z,42.805,6.029,13.2993,4.60011,2470.507,2021-7-22T05:50:51Z
2021-07-22T03:52:38Z,42.805,6.029,13.2993,4.60004,2470.52,2021-7-22T05:53:54Z
2021-07-22T03:55:41Z,42.805,6.029,13.2992,4.60003,2470.507,2021-7-22T05:56:57Z
2021-07-22T03:58:44Z,42.805,6.029,13.2993,4.60003,2470.53,2021-7-22T06:00:00Z
2021-07-22T04:01:47Z,42.805,6.029,13.2991,4.60001,2470.483,2021-7-22T06:03:03Z
2021-07-22T04:04:50Z,42.805,6.029,13.2998,4.60010,2470.507,2021-7-22T06:06:07Z
2021-07-22T04:07:53Z,42.805,6.029,13.2993,4.60001,2470.52,2021-7-22T06:09:10Z
2021-07-22T04:10:56Z,42.805,6.029,13.2991,4.60001,2470.483,2021-7-22T06:12:13Z
2021-07-22T04:13:59Z,42.805,6.029,13.2996,4.60002,2470.52,2021-7-22T06:15:16Z
2021-07-22T04:17:03Z,42.805,6.029,13.2993,4.60002,2470.507,2021-7-22T06:18:19Z
2021-07-22T04:20:06Z,42.805,6.029,13.2989,4.60001,2470.52,2021-7-22T06:21:22Z
2021-07-22T04:23:09Z,42.805,6.029,13.2992,4.60002,2470.544,2021-7-22T06:24:25Z
2021-07-22T04:26:12Z,42.805,6.029,13.2995,4.60006,2470.544,2021-7-22T06:27:28Z
2021-07-22T04:29:15Z,42.805,6.029,13.2996,4.60005,2470.507,2021-7-22T06:30:32Z
2021-07-22T04:32:18Z,42.805,6.029,13.2991,4.60001,2470.544,2021-7-22T06:33:35Z
2021-07-22T04:35:21Z,42.805,6.029,13.2993,4.60003,2470.544,2021-7-22T06:36:38Z
2021-07-22T04:38:24Z,42.805,6.029,13.2993,4.60007,2470.52,2021-7-22T06:39:41Z
2021-07-22T04:41:28Z,42.805,6.029,13.2994,4.60003,2470.52,2021-7-22T06:42:44Z
2021-07-22T04:44:31Z,42.805,6.029,13.2993,4.60003,2470.507,2021-7-22T06:45:47Z
2021-07-22T04:47:34Z,42.805,6.029,13.2993,4.60003,2470.507,2021-7-22T06:48:50Z
2021-07-22T04:50:37Z,42.805,6.029,13.2993,4.60001,2470.507,2021-7-22T06:51:53Z
2021-07-22T04:53:40Z,42.805,6.029,13.2992,4.60006,2470.507,2021-7-22T06:54:57Z
2021-07-22T04:56:43Z,42.805,6.029,13.2994,4.60001,2470.507,2021-7-22T06:58:00Z
2021-07-22T04:59:46Z,42.805,6.029,13.2993,4.60003,2470.507,2021-7-22T07:01:03Z
2021-07-22T05:02:49Z,42.805,6.029,13.2992,4.60002,2470.544,2021-7-22T07:04:06Z
2021-07-22T05:05:52Z,42.805,6.029,13.2995,4.60004,2470.52,2021-7-22T07:07:09Z
2021-07-22T05:08:56Z,42.805,6.029,13.2993,4.60002,2470.53,2021-7-22T07:10:12Z
2021-07-22T05:11:59Z,42.805,6.029,13.2996,4.60004,2470.53,2021-7-22T07:13:15Z
2021-07-22T05:15:02Z,42.805,6.029,13.2994,4.60003,2470.53,2021-7-22T07:16:18Z
2021-07-22T05:18:05Z,42.805,6.029,13.2993,4.60003,2470.52,2021-7-22T07:19:22Z
2021-07-22T05:21:08Z,42.805,6.029,13.2993,4.60007,2470.507,2021-7-22T07:22:25Z
2021-07-22T05:24:11Z,42.805,6.029,13.2992,4.60005,2470.507,2021-7-22T07:25:28Z
2021-07-22T05:27:14Z,42.805,6.029,13.2993,4.60002,2470.507,2021-7-22T07:28:31Z
2021-07-22T05:30:18Z,42.805,6.029,13.2992,4.60003,2470.507,2021-7-22T07:31:34Z
2021-07-22T05:33:21Z,42.805,6.029,13.2992,4.60001,2470.553,2021-7-22T07:34:37Z
2021-07-22T05:36:24Z,42.805,6.029,13.2993,4.60003,2470.53,2021-7-22T07:37:40Z
2021-07-22T05:39:27Z,42.805,6.029,13.2992,4.60003,2470.507,2021-7-22T07:40:43Z
2021-07-22T05:42:30Z,42.805,6.029,13.2995,4.60004,2470.544,2021-7-22T07:43:47Z
2021-07-22T05:45:33Z,42.805,6.029,13.2993,4.60003,2470.53,2021-7-22T07:46:50Z
2021-07-22T05:48:36Z,42.805,6.029,13.2998,4.60006,2470.507,2021-7-22T07:49:53Z
2021-07-22T05:51:39Z,42.805,6.029,13.2995,4.60003,2470.53,2021-7-22T07:52:56Z
2021-07-22T05:54:43Z,42.805,6.029,13.2993,4.60019,2470.483,2021-7-22T07:55:59Z
2021-07-22T05:57:46Z,42.805,6.029,13.2996,4.60008,2470.544,2021-7-22T07:59:02Z
2021-07-22T06:00:49Z,42.805,6.029,13.2993,4.60006,2470.52,2021-7-22T08:02:05Z
2021-07-22T06:03:52Z,42.805,6.029,13.2993,4.60007,2470.507,2021-7-22T08:05:08Z
2021-07-22T06:06:55Z,42.805,6.029,13.2993,4.60006,2470.53,2021-7-22T08:08:12Z
2021-07-22T06:09:58Z,42.805,6.029,13.3000,4.60003,2470.52,2021-7-22T08:11:15Z
2021-07-22T06:13:01Z,42.805,6.029,13.2994,4.60005,2470.544,2021-7-22T08:14:18Z
2021-07-22T06:16:04Z,42.805,6.029,13.2998,4.60004,2470.544,2021-7-22T08:17:21Z
2021-07-22T06:19:08Z,42.805,6.029,13.2992,4.60006,2470.507,2021-7-22T08:20:24Z
2021-07-22T06:22:11Z,42.805,6.029,13.2994,4.60006,2470.507,2021-7-22T08:23:27Z
2021-07-22T06:25:14Z,42.805,6.029,13.2993,4.60001,2470.507,2021-7-22T08:26:30Z
2021-07-22T06:28:17Z,42.805,6.029,13.2994,4.60003,2470.52,2021-7-22T08:29:33Z
2021-07-22T06:31:20Z,42.805,6.029,13.2994,4.60006,2470.483,2021-7-22T08:32:37Z
2021-07-22T06:34:23Z,42.805,6.029,13.2993,4.60009,2470.53,2021-7-22T08:35:40Z
2021-07-22T06:37:26Z,42.805,6.029,13.2994,4.60002,2470.544,2021-7-22T08:38:43Z
2021-07-22T06:40:29Z,42.805,6.029,13.2994,4.60004,2470.53,2021-7-22T08:41:46Z
2021-07-22T06:43:32Z,42.805,6.029,13.2994,4.60003,2470.497,2021-7-22T08:44:49Z
2021-07-22T06:46:36Z,42.805,6.029,13.2998,4.60003,2470.497,2021-7-22T08:47:52Z
2021-07-22T06:49:39Z,42.805,6.029,13.2996,4.60003,2470.516,2021-7-22T08:50:55Z
2021-07-22T06:52:42Z,42.805,6.029,13.2991,4.60006,2470.544,2021-7-22T08:53:58Z
2021-07-22T06:55:45Z,42.805,6.029,13.2996,4.60003,2470.483,2021-7-22T08:57:02Z
2021-07-22T06:58:48Z,42.805,6.029,13.2991,4.60012,2470.52,2021-7-22T09:00:05Z
2021-07-22T07:01:51Z,42.805,6.029,13.2996,4.60003,2470.52,2021-7-22T09:03:08Z
2021-07-22T07:04:54Z,42.805,6.029,13.2994,4.60007,2470.46,2021-7-22T09:06:11Z
2021-07-22T07:07:57Z,42.805,6.029,13.2995,4.60003,2470.46,2021-7-22T09:09:14Z
2021-07-22T07:11:01Z,42.805,6.029,13.2994,4.60002,2470.507,2021-7-22T09:12:17Z
2021-07-22T07:14:04Z,42.805,6.029,13.2993,4.60003,2470.507,2021-7-22T09:15:20Z
2021-07-22T07:17:07Z,42.805,6.029,13.2992,4.60006,2470.52,2021-7-22T09:18:23Z
2021-07-22T07:20:10Z,42.805,6.029,13.2998,4.60008,2470.483,2021-7-22T09:21:27Z
2021-07-22T07:23:13Z,42.805,6.029,13.2995,4.60008,2470.483,2021-7-22T09:24:30Z
2021-07-22T07:26:16Z,42.805,6.029,13.2994,4.60002,2470.497,2021-7-22T09:27:33Z
2021-07-22T07:29:19Z,42.805,6.029,13.2993,4.60011,2470.507,2021-7-22T09:30:36Z
2021-07-22T07:32:22Z,42.805,6.029,13.2993,4.60005,2470.544,2021-7-22T09:33:39Z
2021-07-22T07:35:26Z,42.805,6.029,13.3006,4.60006,2470.507,2021-7-22T09:36:42Z
2021-07-22T07:38:29Z,42.805,6.029,13.2991,4.60003,2470.497,2021-7-22T09:39:45Z
2021-07-22T07:41:32Z,42.805,6.029,13.2995,4.60001,2470.52,2021-7-22T09:42:48Z
2021-07-22T07:44:35Z,42.805,6.029,13.2993,4.60004,2470.483,2021-7-22T09:45:52Z
2021-07-22T07:47:38Z,42.805,6.029,13.2995,4.60003,2470.474,2021-7-22T09:48:55Z
2021-07-22T07:50:41Z,42.805,6.029,13.2995,4.60003,2470.437,2021-7-22T09:51:58Z
2021-07-22T07:53:44Z,42.805,6.029,13.2996,4.60005,2470.483,2021-7-22T09:55:01Z
2021-07-22T07:56:47Z,42.805,6.029,13.2994,4.60003,2470.497,2021-7-22T09:58:04Z
2021-07-22T07:59:51Z,42.805,6.029,13.2998,4.60008,2470.483,2021-7-22T10:01:07Z
2021-07-22T08:02:54Z,42.805,6.029,13.2998,4.60003,2470.45,2021-7-22T10:04:10Z
2021-07-22T08:05:57Z,42.805,6.029,13.2992,4.60003,2470.45,2021-7-22T10:07:13Z
2021-07-22T08:09:00Z,42.805,6.029,13.2996,4.60005,2470.497,2021-7-22T10:10:17Z
2021-07-22T08:12:03Z,42.805,6.029,13.2998,4.60004,2470.46,2021-7-22T10:13:20Z
2021-07-22T08:15:06Z,42.805,6.029,13.2995,4.60006,2470.437,2021-7-22T10:16:23Z
2021-07-22T08:18:09Z,42.805,6.029,13.2997,4.60005,2470.483,2021-7-22T10:19:26Z
2021-07-22T08:21:13Z,42.805,6.029,13.2993,4.60004,2470.437,2021-7-22T10:22:29Z
2021-07-22T08:24:16Z,42.805,6.029,13.2993,4.60002,2470.474,2021-7-22T10:25:32Z
2021-07-22T08:27:19Z,42.805,6.029,13.2998,4.60003,2470.45,2021-7-22T10:28:35Z
2021-07-22T08:30:22Z,42.805,6.029,13.2999,4.60003,2470.437,2021-7-22T10:31:38Z
2021-07-22T08:33:25Z,42.805,6.029,13.2994,4.60004,2470.474,2021-7-22T10:34:42Z
2021-07-22T08:36:28Z,42.805,6.029,13.2990,4.60003,2470.45,2021-7-22T10:37:45Z
2021-07-22T08:39:31Z,42.805,6.029,13.2998,4.60003,2470.474,2021-7-22T10:40:48Z
2021-07-22T08:42:34Z,42.805,6.029,13.2993,4.60006,2470.45,2021-7-22T10:43:51Z
2021-07-22T08:45:37Z,42.805,6.029,13.2993,4.60004,2470.437,2021-7-22T10:46:54Z
2021-07-22T08:48:41Z,42.805,6.029,13.3001,4.60006,2470.437,2021-7-22T10:49:57Z
2021-07-22T08:51:44Z,42.805,6.029,13.2993,4.60003,2470.437,2021-7-22T10:53:00Z
2021-07-22T08:54:47Z,42.805,6.029,13.3000,4.60005,2470.45,2021-7-22T10:56:03Z
2021-07-22T08:57:50Z,42.805,6.029,13.2993,4.60011,2470.413,2021-7-22T10:59:07Z
2021-07-22T09:00:53Z,42.805,6.029,13.2995,4.60007,2470.413,2021-7-22T11:02:10Z
2021-07-22T09:03:56Z,42.805,6.029,13.3005,4.60006,2470.437,2021-7-22T11:05:13Z
2021-07-22T09:06:59Z,42.805,6.029,13.2995,4.60003,2470.413,2021-7-22T11:08:16Z
2021-07-22T09:10:02Z,42.805,6.029,13.2998,4.60003,2470.427,2021-7-22T11:11:19Z
2021-07-22T09:13:06Z,42.805,6.029,13.2995,4.60004,2470.45,2021-7-22T11:14:22Z
2021-07-22T09:16:09Z,42.805,6.029,13.2996,4.60003,2470.437,2021-7-22T11:17:25Z
2021-07-22T09:19:12Z,42.805,6.029,13.2996,4.60004,2470.413,2021-7-22T11:20:28Z
2021-07-22T09:22:15Z,42.805,6.029,13.2994,4.60003,2470.404,2021-7-22T11:23:32Z
2021-07-22T09:25:18Z,42.805,6.029,13.2995,4.60003,2470.39,2021-7-22T11:26:35Z
2021-07-22T09:28:21Z,42.805,6.029,13.2996,4.60004,2470.427,2021-7-22T11:29:38Z
2021-07-22T09:31:24Z,42.805,6.029,13.2992,4.60005,2470.427,2021-7-22T11:32:41Z
2021-07-22T09:34:28Z,42.805,6.029,13.2993,4.60003,2470.413,2021-7-22T11:35:44Z
2021-07-22T09:37:31Z,42.805,6.029,13.2993,4.60003,2470.39,2021-7-22T11:38:47Z
2021-07-22T09:40:34Z,42.805,6.029,13.2996,4.60009,2470.427,2021-7-22T11:41:50Z
2021-07-22T09:43:37Z,42.805,6.029,13.2995,4.60011,2470.427,2021-7-22T11:44:53Z
2021-07-22T09:46:40Z,42.805,6.029,13.2996,4.60006,2470.376,2021-7-22T11:47:57Z
2021-07-22T09:49:43Z,42.805,6.029,13.2993,4.60006,2470.39,2021-7-22T11:51:00Z
2021-07-22T09:52:46Z,42.805,6.029,13.2995,4.60003,2470.39,2021-7-22T11:54:03Z
2021-07-22T09:55:49Z,42.805,6.029,13.2994,4.60003,2470.39,2021-7-22T11:57:06Z
2021-07-22T09:58:53Z,42.805,6.029,13.2998,4.60003,2470.38,2021-7-22T12:00:09Z
2021-07-22T10:01:56Z,42.805,6.029,13.2993,4.60003,2470.366,2021-7-22T12:03:12Z
2021-07-22T10:04:59Z,42.805,6.029,13.2992,4.60009,2470.404,2021-7-22T12:06:15Z
2021-07-22T10:08:02Z,42.805,6.029,13.2993,4.60003,2470.366,2021-7-22T12:09:18Z
2021-07-22T10:11:05Z,42.805,6.029,13.2994,4.60004,2470.427,2021-7-22T12:12:22Z
2021-07-22T10:14:08Z,42.805,6.029,13.2993,4.60003,2470.343,2021-7-22T12:15:25Z
2021-07-22T10:17:11Z,42.805,6.029,13.2993,4.60003,2470.366,2021-7-22T12:18:28Z
2021-07-22T10:20:14Z,42.805,6.029,13.2993,4.60006,2470.366,2021-7-22T12:21:31Z
2021-07-22T10:23:18Z,42.805,6.029,13.2993,4.60003,2470.39,2021-7-22T12:24:34Z
2021-07-22T10:26:21Z,42.805,6.029,13.2992,4.60002,2470.366,2021-7-22T12:27:37Z
2021-07-22T10:29:24Z,42.805,6.029,13.2992,4.60003,2470.413,2021-7-22T12:30:40Z
2021-07-22T10:32:27Z,42.805,6.029,13.2995,4.60003,2470.404,2021-7-22T12:33:44Z
2021-07-22T10:35:30Z,42.805,6.029,13.2994,4.60003,2470.366,2021-7-22T12:36:47Z
2021-07-22T10:38:33Z,42.805,6.029,13.2993,4.60002,2470.38,2021-7-22T12:39:50Z
2021-07-22T10:41:36Z,42.805,6.029,13.2994,4.60002,2470.366,2021-7-22T12:42:53Z
2021-07-22T10:44:39Z,42.805,6.029,13.2992,4.60003,2470.366,2021-7-22T12:45:56Z
2021-07-22T10:47:43Z,42.805,6.029,13.2990,4.60002,2470.38,2021-7-22T12:48:59Z
2021-07-22T10:50:46Z,42.805,6.029,13.2994,4.60002,2470.38,2021-7-22T12:52:02Z
2021-07-22T10:53:49Z,42.805,6.029,13.3000,4.60002,2470.366,2021-7-22T12:55:05Z
2021-07-22T10:56:52Z,42.805,6.029,13.2994,4.60002,2470.366,2021-7-22T12:58:09Z
2021-07-22T10:59:55Z,42.805,6.029,13.2994,4.60003,2470.38,2021-7-22T13:01:12Z
2021-07-22T11:02:58Z,42.805,6.029,13.2994,4.60006,2470.38,2021-7-22T13:04:15Z
2021-07-22T11:06:01Z,42.805,6.029,13.2991,4.60005,2470.343,2021-7-22T13:07:18Z
2021-07-22T11:09:04Z,42.805,6.029,13.2996,4.60005,2470.343,2021-7-22T13:10:21Z
2021-07-22T11:12:08Z,42.805,6.029,13.2995,4.60011,2470.357,2021-7-22T13:13:24Z
2021-07-22T11:15:11Z,42.805,6.029,13.2995,4.60004,2470.357,2021-7-22T13:16:27Z
2021-07-22T11:18:14Z,42.805,6.029,13.2995,4.60012,2470.366,2021-7-22T13:19:30Z
2021-07-22T11:21:17Z,42.805,6.029,13.2995,4.60006,2470.366,2021-7-22T13:22:34Z
2021-07-22T11:24:20Z,42.805,6.029,13.2995,4.60003,2470.357,2021-7-22T13:25:37Z
2021-07-22T11:27:23Z,42.805,6.029,13.2996,4.60002,2470.343,2021-7-22T13:28:40Z
2021-07-22T11:30:26Z,42.805,6.029,13.2991,4.60003,2470.32,2021-7-22T13:31:43Z
2021-07-22T11:33:30Z,42.805,6.029,13.2992,4.60003,2470.343,2021-7-22T13:34:46Z
2021-07-22T11:36:33Z,42.805,6.029,13.2993,4.60002,2470.38,2021-7-22T13:37:49Z
2021-07-22T11:39:36Z,42.805,6.029,13.2993,4.60004,2470.343,2021-7-22T13:40:52Z
2021-07-22T11:42:39Z,42.805,6.029,13.2992,4.60004,2470.357,2021-7-22T13:43:55Z
2021-07-22T11:45:42Z,42.805,6.029,13.2990,4.60003,2470.357,2021-7-22T13:46:59Z
2021-07-22T11:48:45Z,42.805,6.029,13.2993,4.60003,2470.32,2021-7-22T13:50:02Z
2021-07-22T11:51:48Z,42.805,6.029,13.2994,4.60003,2470.334,2021-7-22T13:53:05Z
2021-07-22T11:54:51Z,42.805,6.029,13.2992,4.60006,2470.38,2021-7-22T13:56:08Z
2021-07-22T11:57:55Z,42.805,6.029,13.2991,4.60003,2470.297,2021-7-22T13:59:11Z
2021-07-22T12:00:58Z,42.805,6.029,13.2991,4.60003,2470.32,2021-7-22T14:02:14Z
2021-07-22T12:04:01Z,42.805,6.029,13.2991,4.60007,2470.357,2021-7-22T14:05:17Z
2021-07-22T12:07:04Z,42.805,6.029,13.2996,4.60003,2470.32,2021-7-22T14:08:20Z
2021-07-22T12:10:07Z,42.805,6.029,13.2992,4.60003,2470.32,2021-7-22T14:11:24Z
2021-07-22T12:13:10Z,42.805,6.029,13.2992,4.60005,2470.343,2021-7-22T14:14:27Z
2021-07-22T12:16:13Z,42.805,6.029,13.2995,4.60005,2470.357,2021-7-22T14:17:30Z
2021-07-22T12:19:16Z,42.805,6.029,13.2995,4.60003,2470.334,2021-7-22T14:20:33Z
2021-07-22T12:22:20Z,42.805,6.029,13.2995,4.60007,2470.297,2021-7-22T14:23:36Z
2021-07-22T12:25:23Z,42.805,6.029,13.2994,4.60026,2470.32,2021-7-22T14:26:39Z
2021-07-22T12:28:26Z,42.805,6.029,13.2991,4.60004,2470.366,2021-7-22T14:29:42Z
2021-07-22T12:31:29Z,42.805,6.029,13.2996,4.60004,2470.297,2021-7-22T14:32:46Z
2021-07-22T12:34:32Z,42.805,6.029,13.2994,4.60005,2470.32,2021-7-22T14:35:49Z
2021-07-22T12:37:35Z,42.805,6.029,13.2995,4.60003,2470.343,2021-7-22T14:38:52Z
2021-07-22T12:40:38Z,42.805,6.029,13.2996,4.60005,2470.297,2021-7-22T14:41:55Z
2021-07-22T12:43:41Z,42.805,6.029,13.2993,4.60010,2470.357,2021-7-22T14:44:58Z
2021-07-22T12:46:45Z,42.805,6.029,13.2991,4.60017,2470.366,2021-7-22T14:48:01Z
2021-07-22T12:49:48Z,42.805,6.029,13.2997,4.60006,2470.334,2021-7-22T14:51:04Z
2021-07-22T12:52:51Z,42.805,6.029,13.2998,4.60005,2470.343,2021-7-22T14:54:07Z
2021-07-22T12:55:54Z,42.805,6.029,13.2996,4.60005,2470.357,2021-7-22T14:57:11Z
2021-07-22T12:58:57Z,42.805,6.029,13.2995,4.60005,2470.32,2021-7-22T15:00:14Z
2021-07-22T13:02:00Z,42.805,6.029,13.2996,4.60007,2470.357,2021-7-22T15:03:17Z
2021-07-22T13:05:03Z,42.805,6.029,13.2995,4.60005,2470.366,2021-7-22T15:06:20Z
2021-07-22T13:08:06Z,42.805,6.029,13.2993,4.60011,2470.343,2021-7-22T15:09:23Z
2021-07-22T13:11:10Z,42.805,6.029,13.2996,4.60005,2470.32,2021-7-22T15:12:26Z
2021-07-22T13:14:13Z,42.805,6.029,13.2996,4.60004,2470.366,2021-7-22T15:15:29Z
2021-07-22T13:17:16Z,42.805,6.029,13.2996,4.60005,2470.38,2021-7-22T15:18:32Z
2021-07-22T13:20:19Z,42.805,6.029,13.2994,4.60007,2470.334,2021-7-22T15:21:36Z
2021-07-22T13:23:22Z,42.805,6.029,13.2996,4.60005,2470.357,2021-7-22T15:24:39Z
2021-07-22T13:26:25Z,42.805,6.029,13.2996,4.60009,2470.343,2021-7-22T15:27:42Z
2021-07-22T13:29:28Z,42.805,6.029,13.2996,4.60008,2470.366,2021-7-22T15:30:45Z
2021-07-22T13:32:32Z,42.805,6.029,13.2996,4.60006,2470.366,2021-7-22T15:33:48Z
2021-07-22T13:35:35Z,42.805,6.029,13.2996,4.60003,2470.334,2021-7-22T15:36:51Z
2021-07-22T13:38:38Z,42.805,6.029,13.2994,4.60003,2470.366,2021-7-22T15:39:54Z
2021-07-22T13:41:41Z,42.805,6.029,13.2994,4.60003,2470.39,2021-7-22T15:42:57Z
2021-07-22T13:44:44Z,42.805,6.029,13.2990,4.60005,2470.343,2021-7-22T15:46:01Z
2021-07-22T13:47:47Z,42.805,6.029,13.2992,4.60004,2470.39,2021-7-22T15:49:04Z
2021-07-22T13:50:50Z,42.805,6.029,13.2994,4.60006,2470.39,2021-7-22T15:52:07Z
2021-07-22T13:53:53Z,42.805,6.029,13.2993,4.60006,2470.413,2021-7-22T15:55:10Z
2021-07-22T13:56:57Z,42.805,6.029,13.2996,4.60005,2470.413,2021-7-22T15:58:13Z
2021-07-22T14:00:00Z,42.805,6.029,13.2993,4.60006,2470.39,2021-7-22T16:01:16Z
2021-07-22T14:03:03Z,42.805,6.029,13.2998,4.60005,2470.38,2021-7-22T16:04:19Z
2021-07-22T14:06:06Z,42.805,6.029,13.2994,4.60006,2470.39,2021-7-22T16:07:22Z
2021-07-22T14:09:09Z,42.805,6.029,13.2996,4.60004,2470.427,2021-7-22T16:10:26Z
2021-07-22T14:12:12Z,42.805,6.029,13.2994,4.60006,2470.366,2021-7-22T16:13:29Z
2021-07-22T14:15:15Z,42.805,6.029,13.2996,4.60007,2470.427,2021-7-22T16:16:32Z
2021-07-22T14:18:18Z,42.805,6.029,13.2993,4.60006,2470.427,2021-7-22T16:19:35Z
2021-07-22T14:21:22Z,42.805,6.029,13.2993,4.60007,2470.366,2021-7-22T16:22:38Z
2021-07-22T14:24:25Z,42.805,6.029,13.2993,4.60005,2470.39,2021-7-22T16:25:41Z
2021-07-22T14:27:28Z,42.805,6.029,13.2995,4.60014,2470.39,2021-7-22T16:28:44Z
2021-07-22T14:30:31Z,42.805,6.029,13.2997,4.60008,2470.39,2021-7-22T16:31:48Z
2021-07-22T14:33:34Z,42.805,6.029,13.2998,4.60009,2470.45,2021-7-22T16:34:51Z
2021-07-22T14:36:37Z,42.805,6.029,13.2995,4.60006,2470.39,2021-7-22T16:37:54Z
2021-07-22T14:39:40Z,42.805,6.029,13.2994,4.60009,2470.413,2021-7-22T16:40:57Z
2021-07-22T14:42:43Z,42.805,6.029,13.2999,4.60016,2470.427,2021-7-22T16:44:00Z
2021-07-22T14:45:47Z,42.805,6.029,13.2994,4.60008,2470.427,2021-7-22T16:47:03Z
2021-07-22T14:48:50Z,42.805,6.029,13.2997,4.60006,2470.413,2021-7-22T16:50:06Z
2021-07-22T14:51:53Z,42.805,6.029,13.2996,4.60009,2470.45,2021-7-22T16:53:09Z
2021-07-22T14:54:56Z,42.805,6.029,13.2995,4.60006,2470.413,2021-7-22T16:56:13Z
2021-07-22T14:57:59Z,42.805,6.029,13.2996,4.60009,2470.45,2021-7-22T16:59:16Z
2021-07-22T15:01:02Z,42.805,6.029,13.2996,4.60028,2470.46,2021-7-22T17:02:19Z
2021-07-22T15:04:05Z,42.805,6.029,13.2998,4.60009,2470.45,2021-7-22T17:05:22Z
2021-07-22T15:07:08Z,42.805,6.029,13.2998,4.60006,2470.45,2021-7-22T17:08:25Z
2021-07-22T15:10:12Z,42.805,6.029,13.2995,4.60006,2470.45,2021-7-22T17:11:28Z
2021-07-22T15:13:15Z,42.805,6.029,13.2998,4.60007,2470.474,2021-7-22T17:14:31Z